Location: Bamazo
(6.7448°N, 10.8189°W)
Time: 17:31:43
(UTC+00:00)

Sich 1 Rocket - Pass Details

Date: 18 September 2020
Orbit: 616 x 652 km, 82.5° (Epoch: 24 October)

Event Time Altitude Azimuth Distance (km) Brightness Sun altitude
Rises 19:09:15 0° 169° (S) 2,891 6.9 -7.8°
Reaches altitude 10° 19:11:35 10° 161° (SSE) 1,989 6.0 -8.4°
Maximum altitude 19:15:41 38° 93° (E) 950 4.0 -9.4°
Drops below altitude 10° 19:19:48 10° 24° (NNE) 2,005 6.0 -10.4°
Sets 19:22:09 0° 17° (NNE) 2,918 6.9 -11.0°
